GFSSGP_con_3kmhel_072.txt.gz
Helicity
57 75 67 89 95 81 53 31 -1 64 70 71 117 151 188 197 196 201 64 59 67 42 34 65 90 85 120 140 180 154 151 144 135 125 148 134 156 165 170 141 117 130 139 138 133 123 115 121 150
77 79 113 133 139 92 67 59 72 45 71 121 148 138 160 202 210 172 84 49 53 25 19 61 95 93 102 118 144 170 196 176 135 130 129 138 149 153 150 134 113 127 134 111 103 98 110 134 164
88 95 150 171 149 93 65 42 58 -8 5 107 164 164 215 197 161 103 55 68 70 33 56 71 87 115 119 119 130 164 195 172 144 120 117 134 128 131 146 163 133 103 102 75 68 82 106 144 156
142 182 173 250 133 27 38 -16 18 7 59 142 185 212 238 104 152 50 63 100 84 70 141 108 91 123 135 126 139 147 178 179 168 144 124 133 132 146 129 130 124 85 66 60 60 68 111 143 158
172 217 236 289 92 1 -2 11 -23 40 97 171 176 117 210 180 139 150 94 100 134 100 135 144 119 112 129 139 138 142 163 155 148 157 156 129 120 125 132 120 108 96 73 80 66 80 124 169 205
255 237 340 269 100 -48 -52 5 22 67 95 129 169 261 219 178 204 134 142 177 149 179 170 167 114 97 104 127 101 113 151 188 152 155 172 136 109 127 125 115 104 121 111 74 66 116 169 182 180
230 276 326 243 136 -43 -39 11 -5 -19 202 191 194 285 250 209 129 148 201 234 171 197 191 153 127 162 171 61 71 78 86 164 175 118 139 118 193 93 101 113 135 124 123 66 84 142 173 195 181
198 256 305 276 185 -12 -23 37 58 87 124 165 191 210 202 50 168 235 229 194 213 184 171 154 150 191 194 196 232 210 169 320 308 116 178 206 50 27 103 130 142 130 117 94 110 147 194 206 164
199 323 386 285 129 51 10 43 54 43 149 180 153 166 86 241 224 243 221 219 245 183 160 123 143 173 194 201 197 159 135 282 300 308 225 80 140 31 128 149 143 133 130 70 85 129 210 189 170
268 375 367 240 121 2 -46 -30 29 79 92 132 193 206 226 326 234 214 235 225 215 185 149 142 150 164 159 182 197 145 110 128 221 267 225 268 116 56 137 140 160 152 127 70 61 139 209 217 208
284 300 259 139 63 4 17 -37 -37 25 117 92 136 177 257 239 179 184 203 201 182 203 182 187 212 161 151 142 163 126 112 137 104 125 221 142 259 107 209 168 155 151 123 114 93 138 222 254 232
208 178 119 39 23 10 40 69 34 62 47 18 76 187 173 168 148 139 168 177 296 237 180 224 243 172 99 58 81 63 99 130 191 176 153 212 164 221 229 185 145 77 164 130 113 137 220 242 184
212 96 46 32 29 29 77 137 114 123 91 26 68 143 125 153 119 143 245 256 301 227 183 216 207 137 70 1 20 48 80 127 157 160 235 129 72 294 206 203 185 134 125 105 103 127 183 207 157
205 106 54 53 45 37 125 166 80 105 54 47 100 114 121 135 170 281 324 290 254 209 159 163 156 104 55 17 14 47 64 152 173 126 91 75 245 280 167 166 160 160 165 106 88 109 151 188 199
169 116 42 18 41 46 50 107 86 70 45 32 70 134 133 143 282 277 277 267 252 185 174 162 143 113 68 50 36 62 68 107 52 -12 60 148 205 237 167 195 166 155 155 139 160 144 180 198 227
209 159 103 54 55 38 26 -49 105 54 70 26 22 97 182 210 223 227 255 302 276 248 218 196 172 143 116 82 70 51 44 61 14 115 164 240 202 209 179 199 174 162 171 116 131 143 214 162 227
206 187 120 68 59 69 74 -1 43 42 38 27 -16 30 211 250 213 237 292 338 309 263 248 237 193 158 132 114 88 60 47 56 40 256 268 228 174 182 194 195 159 161 174 138 140 173 182 168 188
234 221 119 49 42 88 40 -27 12 7 -28 3 50 -0 215 259 255 376 318 316 294 257 257 250 168 149 142 141 144 118 87 26 32 62 147 156 172 157 181 179 184 174 156 136 152 145 123 100 133
144 160 99 69 94 50 12 -4 20 2 47 30 70 -3 151 248 338 384 349 334 311 248 277 263 202 143 161 145 150 157 80 54 93 122 168 227 213 178 195 152 160 170 175 93 112 136 97 92 113
172 79 54 45 41 61 -24 19 67 92 34 27 29 122 193 215 346 349 363 343 326 277 272 261 224 184 160 149 141 147 106 61 79 150 213 283 221 213 170 186 172 146 160 118 99 135 147 126 105
87 43 57 32 71 40 15 7 66 87 90 57 65 100 215 314 340 335 359 353 350 318 292 283 218 227 213 168 171 140 86 102 104 145 193 380 346 261 222 115 183 214 187 185 160 110 129 159 107
77 94 130 91 -21 -45 47 -79 29 161 174 75 21 56 131 260 280 333 371 402 329 308 285 273 250 242 239 234 151 113 61 56 61 169 71 71 159 256 153 149 198 252 196 247 226 181 160 182 118
83 97 137 148 -37 -49 5 10 -25 166 143 93 -3 6 111 232 340 306 340 401 318 325 291 260 232 215 244 201 143 65 25 19 78 67 32 -18 116 244 229 207 274 216 243 246 223 257 188 155 254
61 137 104 145 8 -57 6 64 -117 57 55 43 -24 9 85 168 303 283 343 356 319 297 261 242 224 184 226 215 146 93 57 52 48 76 69 74 66 77 196 225 188 232 272 198 161 163 121 2 203
91 127 136 88 76 -62 -20 28 -17 47 31 15 29 82 43 192 297 377 400 333 317 320 238 206 202 168 192 212 158 99 68 64 47 85 94 116 106 18 -31 108 156 207 240 162 115 86 10 85 145
134 169 245 152 112 45 46 -101 -1 -77 -43 44 49 102 120 229 301 365 363 272 274 335 230 191 187 150 144 181 163 119 93 67 83 94 66 67 45 59 54 79 182 216 67 16 137 186 159 172 187
131 77 102 155 77 41 39 24 47 44 69 74 72 -10 87 138 216 301 221 179 298 320 209 192 181 154 134 166 175 144 112 124 127 119 98 74 60 72 41 102 124 103 164 182 194 225 171 136 156
69 127 114 138 55 7 32 70 54 140 33 -22 196 196 226 165 111 171 118 162 261 252 184 155 158 190 148 153 150 145 137 117 115 131 148 126 102 81 78 60 93 149 145 168 192 190 142 87 77
100 72 80 101 138 111 145 200 343 317 223 420 387 436 381 279 54 -14 58 147 202 248 191 158 137 149 142 115 117 156 155 152 120 139 130 130 134 127 103 53 32 84 100 116 122 109 158 118 136
42 57 71 76 51 76 231 180 475 434 475 395 415 388 397 399 237 144 167 166 154 154 173 196 159 144 135 123 122 141 158 157 177 159 130 122 132 130 124 112 69 47 58 64 93 123 142 143 173

GFSSGP_con_3kmhel_075.txt.gz
Helicity
89 77 89 113 150 131 83 79 53 42 84 34 72 109 113 122 143 140 121 35 17 27 12 21 62 101 114 121 155 200 195 161 138 151 188 207 219 217 224 217 196 182 170 154 146 151 139 128 178
106 115 170 156 213 148 73 71 126 85 33 70 122 175 135 117 157 166 210 40 36 55 23 2 38 94 135 153 161 170 203 185 154 170 175 170 193 193 198 206 204 176 135 138 151 150 136 142 199
120 162 209 236 257 113 71 99 98 156 69 38 52 117 139 118 130 172 93 48 58 66 43 25 64 88 104 164 197 173 165 171 166 155 169 191 175 183 177 172 163 139 120 116 137 157 138 169 183
178 244 252 320 256 57 92 94 93 108 89 -7 48 128 152 128 147 112 127 100 125 87 75 38 77 94 116 147 181 171 158 164 170 168 163 172 169 162 166 139 123 111 93 110 146 166 162 183 238
240 275 304 339 259 32 52 25 34 74 73 44 55 118 145 135 152 164 156 123 114 103 93 73 87 107 122 130 143 165 163 164 170 183 166 163 155 146 139 129 104 84 97 111 153 151 176 217 226
257 270 331 309 279 75 13 18 45 96 14 44 79 160 161 140 174 137 176 145 104 131 96 96 103 118 117 129 125 126 149 162 186 182 222 134 156 116 137 135 131 112 100 147 147 154 204 202 178
219 291 283 283 255 118 5 5 74 68 61 34 137 228 172 167 127 159 203 168 112 129 153 153 168 142 102 75 98 111 104 102 134 242 294 201 119 115 87 114 112 130 153 168 146 185 181 159 142
209 231 269 270 313 147 3 10 55 79 181 42 162 160 175 81 169 228 207 176 142 166 173 179 196 177 153 116 76 85 165 272 300 190 105 295 222 136 75 64 94 118 172 216 191 196 158 138 117
212 260 270 337 337 211 83 63 27 46 122 57 80 186 110 232 273 262 238 185 208 201 172 178 162 153 169 173 183 136 192 313 271 238 218 178 96 154 70 20 103 111 186 212 198 214 121 117 136
230 275 284 297 200 143 82 11 -25 28 91 135 76 72 182 304 273 278 262 219 203 182 160 159 171 168 179 186 209 184 169 215 249 304 324 286 234 112 52 44 91 120 204 218 216 211 118 146 154
203 213 232 227 145 118 2 -46 -48 6 94 113 112 130 156 271 228 219 255 201 169 168 168 179 183 201 212 182 201 196 184 184 244 249 272 249 237 169 151 91 108 134 196 237 250 253 185 154 158
144 159 148 141 100 83 51 -14 -67 -6 44 94 140 69 256 206 174 146 233 198 211 184 147 197 204 243 246 187 163 164 166 186 233 241 220 198 161 112 133 136 135 149 203 239 243 262 178 184 150
122 89 75 106 64 52 29 -10 -10 -45 0 44 96 134 158 143 110 128 185 190 234 194 159 200 212 215 174 161 115 88 95 102 153 146 199 227 195 155 167 136 154 161 187 257 249 269 226 186 158
96 93 11 53 53 42 40 -6 47 6 61 45 58 151 119 165 121 195 241 216 237 205 160 187 181 168 140 108 100 68 75 74 110 186 240 214 220 147 87 196 174 145 136 170 247 229 235 178 147
61 41 59 106 112 98 73 19 29 52 109 108 78 119 118 138 244 194 257 224 268 183 192 190 166 145 113 94 96 81 73 126 145 209 278 267 241 241 301 203 190 126 150 135 260 286 260 221 151
86 116 112 109 113 78 145 -57 14 51 110 139 111 113 109 137 164 216 239 271 251 247 199 190 179 154 110 97 103 86 79 93 108 124 69 124 142 132 205 187 177 156 180 167 240 294 292 227 171
123 98 126 129 54 80 141 13 25 50 82 113 95 79 112 125 110 204 294 312 289 221 206 196 206 178 129 126 104 106 101 83 88 66 66 79 123 420 265 192 185 172 162 158 195 266 281 244 204
153 142 164 179 119 86 93 63 57 28 39 112 77 50 98 116 93 304 396 333 294 213 209 223 223 194 179 148 137 109 109 102 81 102 135 139 230 277 205 237 223 198 174 194 218 189 289 254 229
139 138 133 151 74 52 63 57 27 -57 -5 57 19 68 118 120 162 384 404 374 318 225 241 236 249 203 206 179 168 133 104 75 99 175 237 209 275 190 153 174 197 192 160 181 189 248 276 276 249
119 135 109 77 39 75 51 11 34 -32 -4 16 41 39 80 139 248 407 395 358 308 263 233 248 228 217 196 201 182 139 131 54 88 123 106 82 104 145 132 111 169 129 143 174 186 244 269 292 218
112 147 156 77 -4 22 -20 -80 -75 -56 7 25 29 67 85 129 231 334 336 343 302 267 261 242 232 219 187 210 230 180 140 83 95 127 150 162 177 144 172 119 138 131 135 167 196 238 219 250 195
77 105 84 78 35 -35 61 -73 -84 -19 -3 -4 78 85 70 137 172 304 359 337 308 276 257 233 207 195 179 223 236 149 53 28 2 71 146 186 190 215 165 215 181 155 165 156 174 221 207 207 179
127 86 152 120 75 24 42 13 -161 -52 8 21 80 103 86 112 219 293 322 314 320 287 268 232 195 159 146 190 196 139 41 -29 -2 79 134 173 202 273 287 228 267 270 220 182 176 187 237 222 191
123 157 82 68 68 -18 27 40 -141 -23 7 25 41 94 67 71 183 226 306 338 363 251 242 234 220 166 136 163 171 161 80 29 27 82 90 108 123 437 336 301 283 209 233 198 243 242 267 208 207
124 143 120 80 103 30 2 -19 -15 35 33 110 110 109 89 12 101 259 308 329 323 280 246 212 212 169 127 135 116 131 114 68 25 47 46 34 38 103 174 197 198 239 214 203 219 236 260 227 257
98 146 153 110 60 11 61 -8 -41 -48 -3 6 42 25 61 -24 149 274 268 350 343 260 230 212 187 168 125 106 94 77 104 86 52 32 20 52 83 67 114 196 187 195 255 192 217 184 158 180 238
80 89 66 108 70 54 48 35 8 50 24 -97 -85 -8 -15 -23 106 201 223 328 302 238 233 187 153 145 114 91 73 54 60 79 85 84 47 11 34 27 68 114 160 154 171 244 273 236 188 186 194
59 60 63 67 63 19 36 -12 57 123 125 32 -27 86 76 13 106 90 135 266 197 241 204 140 116 131 94 74 69 70 65 58 69 90 94 91 64 50 64 96 121 141 147 206 215 176 153 150 107
47 45 56 47 52 45 61 46 118 281 332 219 210 167 140 58 116 123 160 129 148 175 144 92 79 101 65 57 68 66 88 76 62 54 56 68 57 59 26 47 85 120 140 164 156 143 158 171 161
93 92 76 65 43 52 70 46 212 363 417 421 369 203 240 259 258 181 149 36 64 87 101 65 84 66 39 39 42 30 71 90 90 81 74 79 85 64 72 77 46 53 88 151 175 156 172 182 194

GFSSGP_con_3kmhel_078.txt.gz
Helicity
96 104 108 138 165 188 92 73 94 96 106 30 67 93 72 70 81 89 66 63 68 51 44 43 82 117 149 167 156 164 184 223 238 225 212 214 206 207 206 225 220 196 173 156 150 134 119 110 135
109 135 179 180 266 234 67 80 115 123 85 65 38 56 61 59 75 88 164 31 66 69 46 50 72 116 153 162 184 172 160 182 216 232 210 220 218 209 190 205 222 188 153 143 136 145 136 148 183
134 167 210 228 313 233 80 67 74 152 177 84 91 64 59 48 74 95 56 84 80 73 51 61 83 120 168 178 170 153 151 151 183 206 193 198 225 235 210 213 215 179 146 118 129 148 168 198 206
172 235 248 311 295 109 107 90 102 160 116 78 61 93 43 67 90 93 111 138 124 73 65 68 81 110 172 187 179 142 117 142 148 162 220 192 230 220 221 220 210 160 138 121 133 154 189 229 236
244 255 297 304 271 129 37 -24 35 74 69 101 87 131 85 66 125 125 162 144 138 82 68 62 83 91 131 166 173 162 133 117 144 169 211 167 216 185 211 201 175 143 109 130 161 190 225 233 238
256 248 285 267 286 117 -6 38 75 83 86 74 67 143 74 92 146 139 189 129 103 102 77 97 79 94 123 139 153 148 140 139 134 157 196 202 145 185 88 135 119 98 118 186 199 235 232 207 200
217 265 238 232 197 149 -38 -5 66 94 114 64 44 96 82 78 145 187 203 144 116 91 104 134 100 92 106 106 112 109 113 126 131 156 135 230 123 192 36 52 84 89 170 178 218 218 200 173 172
216 215 214 200 236 190 46 52 47 74 97 65 55 116 79 72 216 254 197 163 121 103 135 146 115 112 106 91 90 102 114 130 305 300 344 423 659 214 217 46 65 103 144 166 255 202 152 151 149
217 251 229 220 191 224 91 76 50 90 103 112 101 45 15 83 270 290 231 180 141 146 155 156 147 150 131 115 94 110 158 226 311 292 292 381 245 103 104 99 98 115 140 187 225 183 159 148 134
195 227 193 194 162 91 109 72 23 30 78 97 113 75 61 81 149 250 237 189 161 146 170 190 165 171 157 160 136 185 232 250 278 339 247 258 62 186 167 35 37 51 162 200 227 205 175 170 141
169 179 162 139 85 60 44 23 3 26 56 44 107 90 71 94 157 117 181 201 189 164 192 199 176 191 185 209 187 194 228 265 277 261 260 221 229 247 172 68 185 82 194 252 249 222 193 159 161
157 106 111 72 66 54 32 7 -45 3 44 -13 32 75 165 166 166 150 151 151 218 216 194 214 189 191 196 227 215 209 231 225 217 240 236 236 226 166 179 126 143 130 217 256 293 244 192 164 156
115 97 91 116 65 40 22 -2 -4 -47 3 -52 -59 31 161 177 173 109 56 150 197 206 232 203 215 193 187 212 197 190 196 158 139 182 203 208 203 196 147 151 206 226 232 277 305 251 220 170 159
97 81 67 66 77 56 25 -56 55 -30 -20 -74 -50 34 129 161 155 122 102 124 192 199 250 227 208 190 181 167 166 109 127 136 154 150 180 153 176 138 164 204 283 275 235 258 291 226 203 182 139
103 74 72 80 86 87 54 -2 28 48 -9 -29 -26 53 99 146 111 120 69 162 216 214 240 232 215 191 138 133 146 89 63 95 150 145 158 156 156 144 161 152 258 246 217 288 285 224 207 193 141
70 57 65 61 58 63 139 49 20 25 23 32 22 75 74 107 108 112 109 144 242 255 247 212 187 177 135 137 156 125 92 80 96 119 134 172 212 199 193 215 216 284 236 271 249 210 220 190 169
97 88 56 33 47 76 151 38 29 -2 49 18 30 80 99 104 87 62 93 195 249 263 264 221 189 177 151 164 175 135 114 111 129 140 144 169 170 158 228 210 275 284 290 246 241 258 247 206 152
84 81 67 56 61 104 127 27 49 30 57 21 53 81 107 94 58 92 139 225 283 306 252 224 192 196 198 184 179 160 124 97 79 83 137 144 144 118 170 378 286 243 286 270 268 244 318 233 182
109 87 60 78 55 63 45 13 59 64 30 22 37 62 110 92 63 128 215 310 306 329 269 229 207 215 219 214 214 176 154 128 87 32 96 127 96 148 250 255 199 209 254 233 252 320 259 293 238
95 82 74 50 55 101 93 11 31 50 34 18 3 31 52 81 46 187 232 280 312 305 245 207 217 204 212 186 180 162 177 153 119 109 196 390 384 307 351 277 192 177 256 274 245 259 323 292 231
87 87 74 75 62 62 88 -2 42 30 -17 -18 36 33 35 43 92 159 166 281 320 275 222 225 218 211 228 225 221 193 218 187 133 129 63 79 92 211 211 205 166 171 216 257 212 264 299 324 191
87 81 66 78 95 139 185 116 43 24 30 8 54 54 26 41 77 82 136 223 260 242 222 208 228 212 218 219 189 189 145 175 52 77 86 54 81 88 137 179 137 137 179 164 154 191 253 325 271
60 78 82 106 103 118 169 175 8 -52 16 45 50 49 48 48 100 110 136 238 250 278 260 246 218 186 192 172 142 139 108 66 36 40 65 117 118 143 208 140 180 122 145 135 154 195 232 308 294
69 66 66 109 129 157 131 150 -118 -46 31 67 51 34 82 154 147 116 155 201 236 195 233 238 212 148 152 154 126 108 93 76 70 34 43 83 100 127 166 175 183 195 241 184 114 158 167 221 268
79 66 79 90 117 186 106 61 -9 -12 89 98 34 49 52 97 120 158 226 204 232 223 216 225 210 158 131 119 112 70 58 60 51 71 85 83 64 84 104 258 234 315 210 246 207 218 257 208 231
31 97 109 112 101 72 18 1 5 103 98 88 62 4 -15 65 75 128 185 270 242 201 204 224 204 155 121 97 103 68 56 51 37 56 97 95 66 54 146 244 242 248 387 242 231 243 214 142 128
36 54 70 94 85 60 30 22 40 70 105 157 100 38 57 108 93 32 164 252 261 209 191 187 189 119 104 69 70 68 53 39 28 37 60 70 62 43 62 86 82 131 158 234 218 235 117 173 159
45 43 82 93 129 49 10 50 57 66 125 100 56 33 87 104 43 54 128 163 162 143 148 135 142 105 92 60 38 34 30 44 34 38 39 48 47 46 54 53 91 134 139 144 200 141 110 145 158
62 62 42 52 84 39 39 35 33 67 72 69 75 87 46 113 9 106 120 139 112 126 131 128 115 103 95 62 45 31 19 29 38 42 21 32 37 35 28 40 59 88 117 141 149 147 201 202 178
62 62 54 61 66 48 60 37 91 98 207 102 46 89 84 215 176 136 72 69 123 147 161 153 141 69 56 53 38 32 34 38 56 54 60 58 57 53 64 57 64 96 137 152 132 149 156 149 140

GFSSGP_con_3kmhel_084.txt.gz
Helicity
67 48 57 62 65 99 60 72 94 83 101 92 100 86 58 87 61 83 40 61 65 84 93 66 45 47 58 85 102 109 125 134 157 163 158 186 186 181 189 175 146 131 135 108 89 81 98 108 129
99 95 88 121 94 82 70 71 50 81 107 56 57 59 63 39 52 54 52 37 67 72 63 40 53 71 100 129 138 136 106 110 129 146 141 178 181 203 189 165 153 154 137 96 91 108 123 125 139
102 77 110 117 70 76 77 63 65 125 85 55 73 54 103 113 56 56 72 68 74 80 76 75 90 98 117 131 121 113 99 94 79 117 128 164 189 183 163 160 172 165 132 109 87 118 137 145 156
110 144 168 120 72 104 53 79 90 88 116 87 115 82 75 70 71 36 77 94 85 89 79 138 105 102 109 112 112 106 79 102 113 125 144 163 113 118 191 208 179 138 93 115 100 111 154 168 173
113 157 118 90 65 98 109 65 46 70 105 132 130 91 68 37 34 40 79 101 100 101 77 87 90 93 93 97 99 95 81 81 98 110 86 83 87 153 175 146 115 117 90 106 123 148 155 181 179
160 197 119 105 66 101 84 33 65 86 47 26 43 56 24 88 27 44 88 101 118 128 98 97 80 74 88 85 83 88 86 81 77 43 70 103 122 86 94 96 78 84 70 83 114 170 165 175 166
114 115 79 61 78 169 58 69 50 59 90 69 113 51 63 30 41 75 96 109 141 140 117 110 87 72 78 77 71 77 84 93 82 58 63 84 95 143 203 130 154 158 101 65 122 168 175 173 162
145 150 49 87 115 90 49 70 55 65 67 133 104 103 104 127 79 73 106 103 141 139 120 104 114 92 70 62 82 68 82 101 89 87 108 170 213 214 172 254 191 128 31 52 104 160 179 177 168
136 166 105 82 94 90 64 70 59 97 76 66 83 122 136 99 84 82 84 78 111 117 97 119 132 128 103 73 78 97 90 137 135 161 165 177 150 175 225 242 170 141 188 107 118 172 207 195 167
158 135 89 106 145 71 62 48 73 54 54 56 61 61 70 57 85 118 9 27 58 89 83 81 118 138 132 104 94 79 101 124 129 160 160 124 155 160 231 150 155 155 168 177 145 201 189 117 100
129 92 97 96 108 56 47 38 28 61 72 67 67 72 97 34 79 48 10 -24 9 48 90 77 93 115 123 121 112 129 163 174 164 173 203 148 115 134 141 153 116 200 171 135 128 119 79 86 93
139 94 92 79 67 47 39 21 41 43 44 61 38 68 35 12 66 17 7 -8 -15 8 61 119 115 123 113 123 120 139 185 202 212 163 176 187 130 114 115 170 113 145 127 138 151 75 79 72 81
84 85 79 63 62 41 37 31 25 54 54 36 55 60 35 29 25 11 5 -14 -6 29 47 117 139 135 144 122 132 159 187 193 171 146 133 141 126 107 130 145 86 151 152 224 65 70 79 78 83
147 102 108 89 70 44 42 37 35 27 24 26 39 47 39 9 1 33 22 -0 4 60 63 102 145 133 113 100 119 167 189 159 160 120 91 92 143 118 136 95 105 166 192 238 140 95 88 81 79
84 85 73 54 43 37 35 39 37 22 27 38 23 53 47 15 3 31 17 -3 11 39 60 105 144 143 105 93 98 137 184 135 121 109 98 117 116 115 88 72 103 187 116 151 133 93 76 71 76
77 73 64 61 43 45 54 48 75 48 50 49 40 63 59 18 14 1 -34 -29 14 31 65 103 133 145 121 101 98 104 167 109 90 95 104 82 126 143 127 75 96 181 198 187 130 69 56 67 79
76 91 61 67 4 57 48 62 135 83 68 63 72 70 85 84 39 10 -22 -34 -1 40 75 122 132 142 139 113 104 102 149 96 101 99 104 87 98 78 64 59 135 208 211 155 221 96 63 72 83
68 32 49 37 68 49 76 57 46 21 43 42 48 73 76 120 68 27 24 -6 28 54 62 93 116 147 177 159 142 132 142 100 106 99 107 104 105 97 61 110 166 233 217 237 224 192 64 77 91
90 71 59 55 33 36 38 35 38 35 27 49 52 51 82 76 55 27 20 -0 46 49 59 80 144 169 225 185 190 167 118 125 125 86 71 69 102 114 84 145 229 312 231 249 200 215 64 103 93
43 36 52 50 23 27 12 25 33 22 29 33 56 61 84 126 22 15 24 -0 39 43 52 114 164 213 180 149 168 157 130 117 105 85 75 71 68 66 117 147 151 338 215 271 246 167 118 118 122
37 35 37 40 50 19 -14 24 -3 34 14 22 41 28 41 79 58 18 31 21 53 38 96 114 194 191 179 147 196 133 153 132 112 90 77 76 77 73 88 120 208 475 310 272 269 179 145 176 111
24 25 34 37 32 24 32 -25 44 16 51 40 50 40 31 42 32 34 42 60 67 38 75 115 167 176 158 169 171 115 111 124 92 87 42 26 41 52 92 125 186 236 401 290 234 208 167 107 108
76 86 44 29 15 27 18 18 8 -10 87 211 136 117 17 -9 -8 12 71 96 65 46 80 123 180 145 154 151 105 109 85 105 75 64 31 32 49 76 136 130 252 249 337 295 246 169 132 114 101
88 57 26 9 10 5 4 27 28 121 109 114 101 104 104 73 55 70 76 78 97 75 96 162 186 178 141 128 89 83 89 97 64 48 43 29 36 43 93 203 264 287 334 264 238 170 163 175 110
56 54 47 -3 4 21 65 12 25 57 65 60 79 84 82 112 89 82 57 53 78 78 153 185 180 183 153 86 92 78 75 86 56 58 68 78 64 80 77 101 189 221 164 214 206 146 169 180 163
44 39 63 66 38 36 33 12 97 45 65 46 68 83 101 144 157 105 58 54 45 58 122 129 153 192 158 96 99 75 59 85 50 32 31 51 58 91 94 76 53 40 214 222 158 187 177 166 159
75 56 78 63 22 31 21 32 19 42 57 41 51 94 75 118 159 99 83 70 65 54 102 124 135 152 155 105 105 72 61 85 51 38 20 33 40 65 57 20 64 84 125 123 118 181 149 127 147
72 77 67 70 51 27 31 40 85 64 57 37 57 27 68 107 166 185 81 88 109 88 74 93 96 142 129 106 97 61 57 60 52 34 35 37 36 48 47 16 50 122 122 135 149 219 69 100 136
61 76 71 98 85 76 69 62 59 51 10 61 77 22 9 124 168 231 141 63 78 99 109 194 197 149 136 114 93 61 58 56 52 19 16 27 36 34 49 30 53 110 164 123 146 199 136 99 139
47 44 37 67 54 70 81 58 38 10 -35 -17 -25 18 48 94 186 238 246 77 81 72 89 179 170 171 158 118 104 79 70 58 37 10 -6 14 19 34 38 50 85 102 106 99 150 237 105 114 126

GFSSGP_con_3kmhel_090.txt.gz
Helicity
67 31 27 54 82 68 44 30 -34 -27 82 76 146 152 72 48 87 119 156 153 148 79 73 67 86 95 111 108 100 93 82 78 76 91 104 105 84 73 65 64 66 72 63 78 76 73 71 73 91
15 18 46 93 114 86 52 -14 -47 -10 116 156 166 83 114 49 31 62 104 89 70 57 51 47 64 94 111 108 111 101 79 81 84 88 100 97 84 79 62 69 65 59 57 82 77 70 74 82 96
-27 -30 68 119 100 70 57 13 -36 66 156 132 119 36 53 45 44 70 165 82 67 83 22 49 65 83 99 100 101 88 78 79 85 89 90 82 79 68 57 56 68 69 68 76 66 69 96 107 101
58 59 88 128 62 56 17 -38 63 40 84 89 115 65 46 80 108 97 111 101 69 82 48 83 66 69 82 82 79 73 76 84 86 82 81 74 74 77 61 58 70 46 50 50 68 83 97 96 89
22 86 130 101 61 31 15 43 54 63 95 47 34 77 43 93 63 85 95 121 102 170 116 72 80 70 67 72 73 75 82 80 63 69 72 75 54 64 67 76 58 53 51 47 44 31 82 85 60
132 67 105 91 35 -9 -24 -18 25 49 96 45 78 65 75 47 52 97 107 114 131 150 72 82 76 70 61 63 68 75 74 59 59 53 60 59 47 56 67 67 58 70 179 203 124 49 60 84 55
50 78 83 46 48 39 15 17 34 77 53 35 30 39 43 120 165 142 99 155 151 140 113 93 75 67 64 69 66 75 72 59 55 61 45 30 57 69 66 66 93 187 162 140 171 17 21 50 36
37 60 47 56 50 31 11 51 59 107 115 51 94 91 75 155 194 234 163 199 185 163 138 93 84 70 74 71 71 76 75 71 65 90 65 56 88 94 107 179 191 172 140 109 127 181 73 76 38
9 101 106 56 35 21 -8 4 56 63 91 110 61 92 62 157 116 128 96 192 212 166 133 142 96 74 77 86 86 86 88 89 86 111 98 104 121 146 180 191 191 165 126 83 73 172 136 80 57
58 94 68 16 26 15 31 82 81 78 100 121 94 58 54 93 91 95 101 135 196 165 168 144 121 94 112 97 126 90 92 100 101 110 126 124 148 184 178 200 186 210 162 128 57 166 112 91 97
58 95 55 46 16 35 63 81 68 99 119 76 60 31 45 58 97 110 164 116 165 158 159 138 140 123 106 91 120 97 105 96 109 98 121 113 198 185 200 217 227 225 177 148 200 166 127 76 99
52 46 43 50 31 72 97 48 64 131 99 67 56 72 65 40 60 133 125 78 104 179 191 148 115 114 101 121 113 80 121 110 123 110 112 107 202 179 201 196 198 252 201 164 198 173 120 162 111
52 36 27 37 31 37 60 99 158 98 58 55 63 63 76 93 82 45 124 67 52 84 213 211 183 129 97 87 79 116 185 161 130 140 144 127 152 152 170 191 162 170 185 200 204 154 142 128 93
48 48 33 36 43 56 73 72 74 73 44 45 48 69 75 82 75 70 83 75 47 60 129 312 241 159 97 94 249 209 204 169 143 160 147 111 131 133 193 175 187 160 210 223 185 169 248 137 103
98 183 158 132 99 90 41 62 76 40 19 21 27 49 62 73 86 86 82 73 36 44 75 367 269 222 116 228 214 185 185 173 149 132 133 114 100 116 127 161 163 186 186 211 203 230 195 105 105
107 94 113 100 44 20 21 69 39 2 -14 3 15 36 50 58 76 84 83 60 26 37 103 311 317 220 151 246 205 164 145 163 165 128 125 105 73 97 111 148 172 194 185 191 183 205 121 81 70
103 97 89 72 4 22 55 131 29 -9 22 89 43 43 61 44 31 63 88 76 28 15 120 361 335 253 192 165 185 200 160 145 141 127 105 123 88 91 121 158 161 150 168 155 162 187 89 105 149
54 64 52 69 9 19 47 49 39 53 91 93 52 62 36 53 59 53 58 72 48 28 92 337 363 314 254 188 207 240 161 120 131 158 159 140 108 130 152 140 131 161 173 148 138 186 116 185 132
33 48 65 72 61 91 110 88 37 41 56 70 38 -3 4 25 45 42 24 76 59 41 62 341 335 343 305 210 302 296 223 178 192 201 186 149 118 149 215 198 185 167 169 148 131 195 180 208 109
38 70 49 49 67 92 116 55 14 18 3 43 53 44 27 27 38 47 46 77 82 68 117 287 316 341 283 200 307 188 209 169 178 184 192 157 165 174 202 177 159 149 142 143 195 191 215 171 75
60 61 36 26 15 34 59 40 -2 9 32 11 27 65 44 28 51 69 35 66 66 83 206 216 276 263 186 225 220 185 175 220 187 156 177 172 170 194 203 185 162 152 142 172 250 230 221 219 181
58 26 11 29 39 56 45 -6 54 26 27 -9 43 49 53 56 56 53 19 75 55 165 228 218 309 212 176 261 159 204 216 250 190 192 165 164 170 180 163 146 152 167 188 249 198 203 227 272 193
59 61 99 77 103 50 45 61 45 9 42 4 179 142 180 157 52 36 68 66 57 184 244 226 338 179 193 203 138 219 187 165 170 132 172 229 238 179 126 88 115 162 172 223 242 269 266 375 209
41 93 50 52 86 40 28 21 27 15 103 221 274 273 172 105 195 225 156 79 44 97 284 289 326 208 193 163 143 217 186 123 191 218 233 243 224 158 112 95 121 186 167 174 242 208 258 306 300
59 75 63 43 56 32 16 9 -12 125 141 165 144 159 192 98 99 190 221 256 237 84 301 383 342 252 202 153 145 196 141 136 246 201 224 233 178 128 95 79 92 101 153 215 181 234 316 355 298
11 53 75 19 36 35 19 57 50 227 141 129 108 156 162 72 20 126 221 295 233 173 258 334 330 254 222 175 157 159 152 174 201 164 204 181 132 130 107 103 99 106 175 148 174 230 304 368 255
1 106 -24 -9 -6 -5 27 35 34 61 199 95 172 105 100 67 74 117 153 205 238 132 249 307 268 232 201 130 119 174 154 158 182 219 199 146 122 110 100 86 80 98 123 126 167 188 288 352 252
18 31 59 74 53 27 10 -1 30 157 97 167 141 81 53 64 92 131 149 210 310 117 235 311 234 231 201 153 132 192 156 178 191 173 135 105 89 91 95 89 77 61 97 111 135 208 202 226 117
42 20 80 101 80 41 20 52 202 165 162 115 66 58 59 55 96 146 212 275 438 311 121 93 109 119 130 98 195 210 147 141 143 115 114 98 82 81 80 91 80 24 58 86 116 195 217 254 362
124 23 72 82 51 49 4 -8 30 31 -90 -8 48 38 57 45 77 144 194 264 337 348 346 42 46 108 120 204 238 203 162 119 134 125 125 110 98 56 47 65 58 41 42 65 84 91 55 117 153

GFSSGP_con_3kmhel_096.txt.gz
Helicity
58 68 91 132 162 203 141 75 75 2 83 27 27 46 74 103 141 141 11 77 129 88 40 13 16 58 81 129 153 136 122 118 121 123 121 123 124 110 100 89 73 70 74 79 78 67 64 75 74
77 94 153 182 201 203 132 74 -19 86 124 94 14 59 107 132 132 96 93 59 84 109 69 39 33 47 58 104 140 148 123 107 110 109 117 121 113 102 90 84 73 64 74 70 71 72 60 70 80
109 132 197 207 187 166 104 69 28 69 23 25 50 70 84 118 138 87 54 53 106 112 73 58 53 53 58 88 122 147 131 116 106 105 110 104 94 94 83 80 70 73 59 57 50 52 62 67 65
159 191 235 269 155 85 96 15 14 98 129 97 15 56 119 111 52 68 136 142 163 106 86 73 69 64 88 86 98 118 120 106 109 109 104 96 91 84 75 72 69 65 62 55 50 60 76 57 58
193 250 281 264 113 105 83 -24 37 160 114 66 63 107 149 196 188 135 117 162 201 124 89 102 98 80 101 77 85 85 105 95 100 108 99 92 86 77 72 64 69 69 72 70 71 86 83 72 80
240 270 319 258 150 67 29 6 66 136 189 88 107 146 195 207 250 157 120 151 185 171 165 149 107 95 84 80 84 70 94 104 113 107 98 90 83 75 80 72 80 87 93 101 94 67 50 131 114
230 340 329 304 194 92 -21 36 135 174 65 74 67 154 211 169 146 156 174 184 176 198 229 202 139 120 79 82 79 77 83 98 98 105 104 93 81 75 86 84 122 127 119 117 94 84 109 86 68
184 301 336 290 234 56 -54 28 71 15 89 43 79 94 141 113 229 300 306 301 312 276 248 230 204 151 104 86 76 75 77 95 92 95 101 102 85 78 90 108 142 145 142 126 114 113 50 44 81
175 366 382 272 189 173 14 70 13 -33 23 15 59 85 108 127 261 367 387 389 312 229 180 228 267 180 126 96 78 79 71 95 84 86 105 116 102 94 104 133 142 159 118 131 114 114 37 42 85
282 360 298 221 137 87 17 54 29 68 77 16 135 102 47 98 183 249 285 285 266 234 204 212 269 213 166 120 114 104 91 105 94 95 103 119 117 112 130 124 156 184 117 133 130 99 92 103 153
244 249 213 145 86 72 79 64 32 71 126 60 61 147 85 85 89 148 183 230 197 198 242 183 210 211 213 155 142 121 104 105 104 91 102 127 147 171 172 155 177 183 113 157 157 139 152 147 202
145 147 126 98 86 87 117 78 -5 98 75 34 44 46 81 102 125 119 145 172 199 255 203 232 224 230 212 240 160 133 113 111 127 85 107 167 207 219 198 173 182 192 158 179 156 164 135 144 202
170 111 125 130 129 142 150 173 130 30 26 8 22 21 38 107 100 102 88 135 160 243 262 259 298 271 244 248 220 163 125 104 109 115 114 190 229 239 215 190 196 199 205 190 214 205 194 168 169
136 142 124 112 118 110 122 107 111 81 15 42 56 51 25 42 102 98 132 129 188 215 310 298 291 308 298 244 208 188 158 110 94 128 102 182 222 251 220 208 200 205 206 216 241 240 210 137 183
174 158 152 113 88 84 82 3 80 64 43 31 31 61 95 48 40 105 104 162 174 225 245 305 288 346 304 232 217 207 187 150 117 117 116 174 218 239 247 205 176 165 192 271 296 270 191 134 160
127 123 136 127 90 40 66 -48 41 31 27 40 85 84 120 98 92 133 92 147 174 211 236 240 243 324 312 258 210 215 207 195 170 147 154 183 206 239 262 237 179 157 192 208 256 226 172 130 139
157 139 88 62 43 88 185 47 118 64 95 91 123 72 92 57 67 62 57 55 61 181 248 202 219 259 304 277 289 238 236 231 252 211 193 179 184 209 245 227 200 182 185 188 224 165 162 149 165
135 145 122 90 65 140 142 86 38 65 88 85 104 88 41 37 71 55 76 96 55 59 276 297 260 264 305 353 353 344 301 284 261 227 209 181 165 175 212 228 229 230 223 224 205 151 112 140 169
122 87 56 64 99 120 82 39 -8 -6 22 50 97 74 84 101 79 39 71 80 103 142 145 318 302 262 384 361 366 313 324 330 281 241 210 169 145 166 196 231 247 262 258 210 172 170 138 163 166
104 81 65 66 84 110 104 90 70 70 101 73 75 118 84 56 83 52 58 77 51 93 145 203 328 391 331 351 356 333 336 327 291 261 201 160 144 177 191 246 250 246 252 210 197 192 182 186 185
97 126 106 106 74 62 102 65 64 39 50 70 64 103 71 28 59 82 55 114 120 71 75 194 316 395 348 288 465 398 412 365 261 212 207 185 181 174 192 237 262 250 250 221 193 204 203 216 170
65 88 87 78 93 65 95 100 -1 67 67 61 67 27 41 142 185 200 157 159 73 85 56 148 278 400 384 338 413 383 324 373 282 298 249 223 182 177 216 234 262 230 220 210 191 195 218 245 221
45 65 84 99 104 108 36 211 92 148 35 83 49 134 155 237 291 291 287 258 170 78 85 119 251 327 392 363 389 437 362 339 373 295 237 218 194 185 181 209 229 215 220 188 166 202 229 241 252
27 63 121 120 147 158 138 175 103 49 72 48 61 62 111 97 191 167 261 241 304 247 202 160 231 312 362 401 388 382 350 364 312 226 230 209 186 172 175 180 187 169 177 175 165 145 168 214 241
53 132 147 163 182 198 107 106 105 9 68 53 144 133 42 94 110 -39 146 248 321 368 306 257 180 235 300 374 353 346 375 338 274 224 229 211 170 131 89 104 139 115 115 102 112 125 152 235 240
77 123 194 175 139 80 56 105 56 52 58 55 113 133 155 155 94 -31 25 168 291 357 404 221 131 218 238 245 309 318 300 297 227 189 230 207 162 114 104 177 137 99 87 89 115 119 156 194 244
77 126 103 142 113 87 76 106 59 104 62 60 98 120 195 180 119 96 157 192 293 361 472 401 121 171 226 256 261 290 264 214 186 184 214 194 186 189 171 206 117 48 52 51 89 119 103 146 238
97 93 110 154 139 85 27 -37 -23 65 55 77 63 71 119 87 121 137 188 200 288 327 438 542 383 234 257 237 259 263 226 154 157 187 191 186 185 193 188 171 104 68 80 81 72 67 63 94 194
-48 48 102 105 154 116 1 -66 -94 -100 -64 34 60 86 79 79 112 112 138 184 260 308 369 437 475 338 244 237 207 223 224 155 147 183 188 170 175 161 173 148 100 73 102 76 48 37 70 78 264
30 25 33 24 161 91 -36 -51 67 123 106 219 17 32 48 56 79 96 103 148 175 308 397 380 429 379 239 71 49 142 139 174 160 176 163 143 144 131 177 125 94 93 105 69 33 42 48 77 124

GFSSGP_con_3kmhel_099.txt.gz
Helicity
86 93 113 166 157 159 85 61 39 53 93 66 110 81 45 31 57 87 105 48 110 101 30 -6 2 23 55 85 119 217 256 227 194 178 172 151 158 161 157 130 108 94 93 69 75 83 76 76 58
94 114 186 211 226 208 82 103 4 62 60 96 144 107 68 43 78 105 135 34 61 104 46 12 39 70 90 92 84 166 228 246 215 188 164 143 133 149 138 121 106 99 89 73 78 75 66 66 53
106 148 222 231 238 257 127 127 52 27 61 78 131 46 22 52 69 61 70 84 121 110 68 55 76 89 106 102 84 134 182 216 223 193 155 143 131 135 130 86 85 85 79 78 79 78 79 85 67
146 211 278 296 210 119 99 123 83 55 90 47 87 192 42 52 59 57 129 168 156 135 68 62 92 96 109 116 93 108 148 178 212 201 169 156 134 129 123 92 85 88 70 79 92 96 94 79 85
199 261 350 291 219 150 92 30 44 66 137 165 182 159 95 51 171 187 203 183 186 128 84 92 110 118 124 124 99 94 116 134 186 191 179 160 133 131 125 103 100 81 73 75 102 99 87 88 91
273 294 347 249 214 141 62 24 35 41 135 173 120 188 77 100 176 189 174 119 114 139 136 137 155 153 126 106 101 87 97 104 150 172 160 151 138 134 118 104 92 88 91 111 119 110 106 95 122
278 321 277 259 204 136 49 49 49 128 128 199 200 173 73 137 175 178 127 122 135 162 189 204 163 141 120 92 82 95 82 86 107 140 129 134 132 131 116 103 90 96 100 119 100 90 88 79 112
257 298 289 255 218 140 70 78 68 114 134 110 55 207 102 70 193 236 244 227 228 246 238 219 177 171 164 116 83 90 81 82 81 106 105 115 120 125 116 119 102 103 103 106 99 80 97 50 95
213 339 347 317 234 182 72 82 -1 52 54 86 92 110 39 110 234 305 282 253 239 229 225 219 184 165 208 179 102 87 80 78 68 77 83 115 123 121 119 138 117 120 119 109 91 98 100 143 121
288 355 284 272 187 127 -6 8 29 24 112 84 110 102 161 82 132 247 231 224 214 183 180 170 180 202 223 193 156 120 98 94 80 66 82 119 117 128 147 147 136 144 139 121 135 115 137 152 159
269 310 245 211 134 111 96 46 72 48 80 102 128 96 95 131 110 127 154 180 131 108 176 141 184 214 223 203 196 150 131 114 104 58 88 103 123 138 172 183 164 169 161 144 130 156 152 170 189
247 221 169 134 86 96 120 113 74 113 70 103 99 69 21 39 74 59 77 84 153 218 149 169 187 196 212 247 226 188 176 139 102 67 95 137 128 146 179 197 193 200 173 168 171 188 156 175 202
198 152 131 130 122 134 133 157 167 95 85 50 67 59 38 8 13 49 75 99 124 120 151 172 236 217 225 262 287 247 182 166 110 91 90 155 131 137 172 197 225 212 186 191 172 201 135 173 199
169 178 161 137 155 160 135 130 164 115 45 85 76 73 68 29 40 55 65 89 110 146 145 161 247 253 289 277 278 255 213 195 175 137 114 133 155 142 168 199 236 228 199 199 208 141 159 208 232
123 123 128 119 110 117 78 92 105 57 46 21 2 25 43 54 54 46 76 76 124 140 140 240 236 302 308 283 268 250 203 199 190 178 149 141 164 147 174 191 226 217 222 244 233 166 216 251 261
148 127 149 102 144 92 87 70 112 46 73 60 29 14 23 33 35 139 133 101 116 191 189 218 270 299 284 284 283 293 236 185 197 199 182 151 167 153 176 170 182 218 220 215 208 169 250 283 243
161 158 139 110 47 69 104 32 16 76 92 73 72 52 57 71 93 101 136 175 157 143 238 242 302 352 312 295 309 281 250 228 198 212 193 165 184 171 184 168 155 180 211 195 197 193 248 283 225
138 158 138 126 84 94 107 21 63 62 55 47 32 24 39 37 36 66 81 97 112 88 111 150 268 294 290 345 338 303 267 213 240 202 190 200 206 196 193 193 171 207 209 174 203 200 219 208 202
139 118 88 90 85 104 91 50 47 57 56 73 79 70 67 67 38 28 57 66 73 69 105 141 195 213 309 375 345 300 282 252 219 199 212 210 233 224 210 200 169 191 216 171 190 213 222 191 207
140 111 87 87 92 117 105 61 41 58 50 59 52 71 83 71 78 85 13 73 108 76 126 148 147 204 306 366 331 345 302 288 243 267 236 212 233 220 222 213 184 216 219 197 198 239 236 220 205
108 129 101 107 161 118 123 62 59 40 59 43 63 51 22 24 97 132 114 98 146 90 70 95 139 235 290 325 378 456 451 405 344 242 228 263 241 213 206 204 197 207 213 226 203 226 235 228 197
66 91 94 97 109 93 71 113 -1 49 -2 7 10 38 97 194 206 155 169 185 145 199 224 156 85 170 244 339 379 413 378 332 223 201 230 278 289 223 223 196 183 205 206 219 215 214 214 189 196
89 70 82 93 110 89 78 175 99 40 38 71 81 84 89 109 140 130 113 143 136 188 264 267 124 201 209 326 415 449 344 322 353 315 306 293 310 205 203 201 193 211 218 181 203 179 169 207 212
116 122 139 176 153 134 43 103 102 74 52 74 93 105 73 79 59 59 32 99 60 155 166 259 197 168 202 292 391 356 342 335 366 330 332 361 329 213 196 189 193 227 230 149 166 169 124 145 187
192 149 153 165 228 169 96 100 102 90 72 54 77 78 62 49 87 112 21 -96 12 88 128 226 233 144 203 236 280 301 300 344 367 352 330 348 285 225 203 189 184 214 197 121 159 180 144 138 137
136 145 174 202 187 136 96 141 110 117 144 126 66 81 109 102 48 222 123 -40 -74 66 110 215 264 92 172 211 284 281 304 322 301 275 306 308 242 173 205 177 165 158 150 137 176 149 114 113 115
115 172 112 162 178 170 163 150 173 191 128 30 18 -26 17 139 201 257 321 32 55 100 164 239 285 117 183 198 245 305 291 257 255 262 261 238 195 169 160 113 109 154 183 129 163 125 115 116 116
89 101 169 214 250 242 172 90 74 120 61 -17 -2 -17 38 55 61 176 178 135 181 201 235 321 351 457 192 206 235 218 196 202 218 252 212 194 215 200 173 147 162 184 154 94 124 109 109 109 98
146 216 222 180 132 197 149 62 187 149 59 -22 85 32 37 40 -2 80 135 160 215 229 252 333 361 389 432 294 221 281 191 140 191 196 170 171 179 179 156 165 146 133 117 86 126 111 90 68 53
77 152 217 336 266 111 104 -19 97 57 41 64 -15 92 46 23 1 38 107 146 208 265 289 350 334 285 318 286 170 147 151 163 183 127 140 153 166 151 123 139 137 118 95 92 109 97 62 85 38

GFSSGP_con_3kmhel_102.txt.gz
Helicity
97 90 91 142 146 141 100 63 83 49 36 49 68 107 166 64 80 59 29 123 119 161 117 80 54 47 56 101 138 154 156 206 260 272 233 199 189 157 144 131 110 86 85 91 91 78 66 71 76
110 109 163 166 201 201 72 105 90 44 46 68 86 90 121 124 31 38 95 9 57 148 112 82 52 43 56 116 146 161 146 179 220 252 254 213 188 159 151 147 139 111 92 83 80 77 72 77 79
126 140 200 207 220 241 88 64 66 59 91 72 64 68 119 118 34 38 43 83 91 157 136 107 79 48 69 115 153 164 144 154 185 211 229 215 195 164 156 162 160 121 96 83 76 77 73 83 92
153 213 258 254 173 99 84 98 97 74 86 82 120 158 86 29 28 29 124 155 158 175 168 101 73 44 73 129 173 180 158 160 167 184 205 196 182 166 145 148 149 117 105 86 83 90 83 89 98
217 265 329 280 158 122 59 39 42 64 83 122 139 145 162 36 40 65 150 193 245 232 168 88 64 75 104 146 175 180 163 149 157 165 188 189 176 161 143 138 123 116 100 85 96 98 97 105 107
276 297 325 283 173 119 37 -2 38 50 66 89 145 213 116 84 60 110 188 223 193 172 108 75 69 110 148 177 195 171 153 134 141 147 158 171 170 154 145 134 136 119 94 101 99 106 108 91 93
282 337 276 268 190 117 63 33 60 70 90 109 103 210 172 208 -30 84 182 206 163 126 90 78 94 103 156 185 185 168 146 132 119 124 130 147 153 147 145 135 121 110 103 120 107 99 104 100 95
260 302 294 253 241 125 86 102 105 86 56 118 85 228 318 175 -2 116 141 196 159 156 141 115 124 137 139 135 147 159 147 131 106 97 103 123 128 125 128 126 113 107 112 119 112 101 93 103 96
246 327 320 299 243 179 122 107 73 74 66 44 21 105 134 108 35 64 99 160 169 158 143 152 151 142 124 130 130 127 141 118 113 96 99 107 120 105 116 121 104 103 111 119 111 106 101 115 122
282 317 241 253 197 167 86 51 33 43 90 45 82 52 64 61 94 33 38 58 139 125 144 156 154 150 141 141 142 120 92 112 113 99 106 107 118 101 120 114 109 99 104 123 113 112 136 153 156
233 279 227 216 140 143 118 60 41 50 100 101 91 135 127 118 134 112 43 30 53 79 113 138 151 154 183 179 166 145 107 115 118 113 124 116 122 117 118 131 124 123 126 152 132 157 195 161 187
255 210 172 147 122 126 143 109 56 77 73 93 123 157 124 137 140 133 45 54 49 54 77 81 123 175 193 214 198 170 146 129 130 122 127 143 118 116 127 135 150 159 153 155 166 180 190 188 178
216 191 154 139 128 119 112 126 111 71 71 73 78 119 154 115 64 48 56 79 75 50 92 109 156 140 189 218 219 186 174 171 132 123 111 134 121 98 127 134 150 174 175 173 171 190 194 186 189
197 154 149 142 120 115 105 116 137 98 36 54 67 69 79 89 95 69 58 72 70 81 103 173 177 186 208 204 214 196 200 188 168 136 119 134 125 122 122 146 141 172 182 184 176 179 206 182 168
155 151 144 120 103 117 122 172 135 77 78 51 38 24 36 72 91 61 63 79 95 117 103 187 199 239 270 257 227 237 229 218 208 171 135 126 152 146 141 156 143 150 185 207 188 186 200 156 143
167 158 172 118 108 75 95 146 80 96 112 123 101 102 66 57 67 93 91 111 120 150 132 141 187 256 284 327 290 283 261 244 204 198 172 147 166 176 184 171 151 156 198 188 179 177 182 147 155
210 178 142 123 82 99 119 151 134 147 84 71 85 88 66 51 61 78 80 105 112 155 169 182 187 250 248 334 383 300 263 234 233 211 207 170 182 194 170 177 176 181 197 197 179 184 177 166 168
164 182 157 153 108 98 96 84 81 85 85 70 62 64 45 27 21 44 62 59 116 114 115 125 137 181 243 279 345 333 293 247 248 225 228 201 198 190 207 163 191 192 196 184 193 180 184 190 182
170 160 137 115 105 133 102 89 84 101 82 69 39 24 52 97 60 23 9 -9 30 88 91 99 135 146 240 255 287 295 299 287 253 225 229 238 205 197 199 187 198 196 194 177 179 163 186 204 201
160 151 118 98 88 84 83 52 61 68 60 46 43 77 67 64 64 57 52 22 9 21 113 116 98 142 211 247 249 291 249 236 274 249 216 232 226 218 219 216 215 209 205 203 185 198 195 205 226
129 146 111 101 123 90 83 1 17 26 81 46 33 31 92 105 105 104 134 177 123 62 116 150 139 129 188 211 266 308 303 312 299 208 227 231 233 226 233 238 228 210 220 214 196 205 207 221 217
131 87 91 98 113 79 61 41 -7 -3 35 16 47 100 115 120 90 68 116 116 144 93 57 90 86 122 101 210 255 231 250 330 307 290 226 239 248 271 245 249 223 202 223 226 215 214 229 202 253
61 64 84 109 115 91 115 142 34 65 23 31 49 69 68 71 42 27 35 60 95 72 42 50 74 107 139 171 217 276 289 279 302 325 300 243 322 284 301 266 229 198 227 235 222 205 222 211 227
83 69 82 129 130 124 97 127 73 32 29 28 31 48 -0 -1 -5 4 32 31 71 93 45 51 104 95 151 146 203 238 257 307 356 311 297 296 315 325 306 290 245 197 202 238 225 202 204 195 164
161 124 120 120 165 152 85 93 121 91 50 21 32 66 49 7 -13 -11 17 55 77 127 118 3 77 79 123 117 175 216 237 284 321 340 296 316 308 313 297 308 240 188 200 213 218 206 189 175 140
167 144 157 166 167 120 120 142 118 150 133 122 103 76 41 14 -46 -10 -5 60 129 109 102 27 99 87 149 73 86 135 184 294 356 287 241 291 282 325 363 338 234 211 208 219 214 202 151 149 127
145 172 163 180 164 157 153 196 157 174 152 71 126 96 65 45 -41 20 24 47 190 127 133 65 106 118 260 35 64 163 195 267 288 222 243 247 224 334 305 284 226 196 192 191 172 166 139 132 109
141 158 230 263 222 212 189 164 158 179 134 122 105 54 40 45 10 37 -7 32 126 148 168 167 160 253 245 253 132 173 160 219 232 235 246 239 267 274 265 252 232 213 159 166 162 167 133 123 118
147 191 233 258 283 320 318 275 177 113 75 59 48 32 -24 30 63 96 20 27 82 121 154 184 227 305 336 345 198 159 220 219 213 212 233 217 228 242 245 227 214 166 157 185 172 139 108 99 65
130 156 166 275 301 345 338 275 93 73 116 63 72 37 17 -15 -26 25 23 55 91 126 155 182 229 287 245 260 276 122 149 167 161 199 212 187 197 197 178 190 180 163 160 154 118 94 91 78 50

GFSSGP_con_3kmhel_105.txt.gz
Helicity
85 83 73 88 69 98 56 46 73 54 35 60 88 77 110 65 58 79 29 49 63 163 186 127 111 107 93 79 76 108 141 147 141 178 203 191 164 156 140 146 137 113 105 90 80 71 64 64 64
93 92 112 107 82 81 49 71 49 32 86 71 36 73 56 101 36 52 33 53 69 133 160 130 135 132 114 95 82 95 138 155 133 156 179 181 170 153 149 151 136 130 109 83 73 66 64 73 83
109 128 134 117 132 111 69 37 56 65 102 75 79 59 84 109 80 43 -3 20 76 117 148 137 171 158 130 99 90 107 129 151 141 145 157 167 169 154 166 150 134 129 104 78 72 69 72 88 90
132 178 198 140 96 80 75 102 51 70 51 70 86 120 112 100 116 29 -16 27 56 92 156 169 186 147 135 120 122 138 163 158 142 143 151 159 158 155 177 145 123 117 104 78 76 72 82 94 88
188 202 220 152 108 120 90 58 44 46 59 38 54 112 140 139 86 -9 -24 68 38 106 144 158 167 146 135 126 162 170 186 167 147 136 151 153 149 159 171 144 116 116 97 82 78 79 89 96 91
206 223 231 150 105 87 73 61 37 63 46 73 124 122 107 129 181 51 -1 23 68 117 154 142 120 140 145 141 153 179 197 189 177 145 143 145 142 148 150 122 98 98 98 100 95 79 89 91 88
213 227 220 175 118 72 60 61 37 33 55 102 104 161 129 213 164 122 48 57 80 83 129 127 89 101 128 133 149 159 174 186 190 159 139 145 139 137 134 114 97 91 97 94 93 79 85 94 85
246 226 221 198 128 68 63 86 85 66 84 95 72 125 178 204 147 141 2 54 95 95 90 99 107 110 92 84 111 132 160 166 148 152 142 136 127 118 118 101 88 82 88 94 96 79 90 91 85
254 247 229 200 159 125 80 108 104 108 83 84 82 111 90 109 58 168 81 20 56 68 78 101 121 105 104 105 92 108 120 137 132 121 137 146 116 98 98 95 88 81 92 96 87 82 97 101 93
245 259 189 208 148 119 107 82 79 83 103 69 75 64 87 85 119 147 215 50 24 27 55 81 93 99 122 111 101 104 107 119 101 92 116 128 106 96 92 83 73 82 98 92 95 95 108 111 91
224 250 199 208 94 122 126 92 61 61 65 74 76 89 137 171 123 112 145 120 -7 23 53 77 105 109 104 109 128 129 122 122 110 90 96 108 114 97 88 84 78 70 92 94 81 96 106 100 94
222 182 161 150 114 133 115 65 68 63 48 29 51 53 85 177 208 142 138 115 47 18 36 63 93 95 107 124 130 140 132 117 106 106 95 103 134 123 97 91 90 89 104 103 108 108 108 101 90
188 159 145 118 122 112 96 87 68 76 54 53 44 69 50 96 129 144 140 153 115 60 23 49 64 68 74 135 144 144 131 139 109 107 118 129 110 118 123 110 94 93 107 115 121 105 108 114 106
187 135 134 144 109 111 106 101 131 80 64 75 69 52 69 61 94 109 116 119 126 107 64 42 35 77 152 142 139 147 139 122 142 146 135 138 118 101 120 124 123 87 100 117 127 122 113 113 113
155 149 137 104 104 121 128 124 122 63 90 80 95 93 86 95 90 80 88 108 96 107 84 41 89 114 159 157 175 190 144 145 147 173 153 127 127 122 126 126 138 118 109 122 140 129 118 108 107
144 136 148 150 103 106 91 141 93 118 162 159 108 105 104 82 85 110 111 116 155 148 133 117 59 93 151 188 231 253 207 167 143 187 186 159 140 152 154 134 128 181 152 146 159 153 141 106 113
200 158 138 141 97 120 140 182 103 127 138 103 87 72 71 74 85 98 116 135 166 174 178 183 160 106 94 127 202 204 216 224 219 187 178 175 173 167 180 157 154 170 178 177 172 159 137 123 115
172 172 169 172 123 112 121 93 73 69 88 55 61 70 68 78 80 79 105 121 136 149 148 161 160 143 133 149 158 178 201 232 226 210 183 192 200 186 179 180 198 183 174 183 203 176 141 120 119
183 157 115 95 65 114 99 98 76 62 71 37 42 63 87 97 91 76 93 122 141 141 178 211 189 169 123 117 157 204 221 246 246 207 161 191 213 183 181 219 220 196 189 171 198 203 174 166 136
161 139 123 94 66 78 76 61 40 32 55 55 97 104 95 79 108 139 140 121 120 147 163 211 237 204 182 122 140 182 225 169 226 241 181 174 193 204 185 228 232 224 212 181 187 202 220 186 188
149 143 116 102 117 85 63 55 46 43 52 119 128 95 86 102 119 121 127 118 120 138 176 186 196 240 207 190 127 155 145 137 149 209 229 189 181 221 225 220 248 251 233 204 207 200 206 223 184
143 87 81 78 118 141 99 106 39 14 103 89 32 80 89 91 99 86 97 100 67 69 91 107 128 165 195 168 143 130 198 195 205 253 244 202 192 193 211 224 242 242 238 224 208 184 208 229 200
111 82 61 60 78 103 76 108 62 44 85 29 44 67 72 66 58 54 53 41 28 25 37 72 92 116 160 136 121 136 139 158 163 163 149 199 227 240 216 221 247 249 262 220 211 196 215 241 246
89 80 85 100 94 141 66 81 53 5 29 41 55 77 93 82 66 55 37 13 15 21 56 41 85 70 124 179 76 98 108 101 129 137 182 225 238 219 246 260 254 258 250 230 198 205 199 232 234
114 111 127 131 157 167 101 59 90 69 50 66 115 104 98 47 45 37 30 31 24 58 123 129 108 65 95 133 135 110 77 89 78 84 152 249 316 317 206 241 241 266 300 264 176 218 208 218 231
140 128 137 150 134 130 115 91 95 149 146 128 104 65 56 71 46 45 59 92 79 47 81 187 152 98 153 119 164 113 67 125 110 89 103 178 237 292 237 238 209 307 338 254 157 164 199 228 225
140 158 156 161 143 105 135 165 155 199 223 150 136 107 96 64 14 44 100 80 53 65 59 139 159 125 180 161 186 92 109 127 162 148 135 158 188 225 230 259 274 289 272 196 153 209 214 175 208
156 132 153 187 139 129 113 108 189 194 201 153 102 60 50 53 63 57 28 26 27 27 34 128 141 103 198 190 264 132 82 156 165 139 127 186 200 213 226 246 262 260 206 159 183 203 172 204 190
134 147 188 194 209 212 169 175 282 270 212 162 56 74 68 26 3 30 21 36 26 6 64 113 160 221 230 241 298 216 124 129 151 166 152 217 225 228 248 215 265 265 205 161 166 157 183 153 193
136 169 217 217 210 275 275 194 262 211 161 84 15 -40 4 -5 9 49 27 15 13 38 80 110 150 228 294 267 355 193 80 127 154 160 177 197 197 176 226 242 294 253 185 172 156 169 180 175 130

GFSSGP_con_3kmhel_111.txt.gz
Helicity
-30 -11 5 7 8 16 -15 9 91 70 45 99 101 66 140 125 114 65 50 25 5 14 80 115 109 103 95 84 68 67 77 92 90 90 90 96 97 88 79 80 89 52 41 58 44 42 43 36 37
-9 -8 6 16 -1 -22 3 72 74 46 146 71 46 48 38 60 109 143 95 -9 30 4 52 77 107 109 116 91 74 77 84 94 106 95 97 103 104 89 81 78 78 51 67 55 37 38 43 35 49
-37 -11 -8 24 3 -11 4 112 160 140 89 51 65 59 85 129 154 106 93 35 18 6 40 58 94 111 120 99 84 86 94 109 104 97 100 107 108 96 84 79 77 65 68 47 39 36 39 45 53
13 28 34 29 -15 -7 18 76 133 79 45 46 57 37 100 135 120 91 60 39 8 3 22 120 102 82 111 108 93 109 117 127 112 101 102 114 111 103 91 79 78 65 63 40 32 36 39 47 59
11 29 30 20 -3 -5 25 108 106 53 82 102 58 46 63 68 89 106 70 31 6 2 40 33 96 59 92 109 107 112 113 121 109 100 104 124 120 111 100 89 82 74 63 39 31 39 35 39 55
36 63 41 30 -3 7 53 95 80 50 57 56 63 58 61 129 118 90 72 66 22 10 37 36 92 76 80 99 98 105 111 119 108 102 97 111 128 133 124 104 82 67 61 47 40 44 34 35 49
23 53 41 37 -3 17 36 114 99 53 67 53 125 113 57 79 130 78 67 44 40 31 19 41 83 88 93 84 81 103 109 112 102 91 91 103 116 115 103 96 86 67 54 46 48 52 47 47 50
36 59 49 32 16 30 70 138 90 68 69 160 169 106 71 142 126 51 63 34 27 40 32 24 75 104 92 75 79 97 103 111 97 93 92 94 101 94 93 84 64 56 49 38 48 50 52 51 48
77 111 77 23 32 40 72 78 53 130 103 105 90 90 150 145 84 66 58 46 24 40 45 48 85 119 102 72 74 96 98 100 97 96 100 103 73 73 73 61 75 51 49 41 47 52 54 54 53
81 91 55 35 120 109 104 98 73 91 61 72 91 56 49 59 108 98 91 103 60 32 60 114 125 148 161 87 74 72 81 81 74 79 88 73 55 61 56 64 73 68 54 52 54 59 59 60 42
72 78 55 90 109 118 99 84 82 82 71 72 85 100 108 105 90 89 69 65 69 50 10 45 77 113 129 115 79 76 85 90 79 58 74 71 70 53 70 68 93 61 60 46 62 66 56 45 41
64 57 81 78 107 102 63 58 67 71 77 111 103 85 87 106 92 74 79 109 103 88 75 -6 56 61 63 79 111 54 105 100 74 59 72 72 61 69 86 47 79 72 59 39 45 53 56 43 37
93 77 90 109 114 95 90 84 62 75 86 68 84 102 105 89 71 70 71 80 83 78 117 95 50 66 57 65 64 77 53 87 87 119 76 63 58 64 62 53 33 110 78 67 49 43 64 60 64
96 129 98 92 99 97 85 78 85 85 78 85 75 77 69 63 90 63 64 69 99 145 117 92 99 68 69 66 68 63 85 84 95 84 62 97 48 97 76 70 59 43 106 85 58 58 62 76 75
96 61 63 63 61 65 76 87 88 41 45 81 76 93 64 86 72 102 92 118 174 171 149 162 160 154 86 94 93 100 84 87 82 75 70 85 86 118 97 81 74 81 65 136 85 63 68 75 86
79 52 74 40 55 126 96 90 89 82 116 82 58 45 70 44 46 35 126 170 153 144 177 144 143 131 120 79 87 90 104 104 64 77 81 82 96 75 134 122 115 138 82 116 94 69 101 113 99
134 184 54 61 95 89 108 86 64 83 148 82 41 45 50 47 33 79 181 156 133 130 132 146 141 128 136 128 90 65 78 99 98 103 98 128 105 87 98 162 129 159 140 110 142 73 115 124 108
106 87 52 69 53 70 89 74 53 67 72 69 26 23 30 37 44 170 141 132 137 156 128 132 160 181 199 166 164 120 99 108 118 116 135 127 141 106 142 170 117 142 182 162 149 122 153 99 106
98 157 194 149 86 100 140 105 89 58 35 60 29 42 34 25 132 164 115 119 127 145 153 144 116 121 154 187 224 201 119 133 144 143 158 186 201 160 175 192 164 182 181 184 231 187 183 147 144
102 94 96 110 84 89 141 93 56 27 37 34 30 26 57 128 110 148 145 133 143 142 142 146 148 126 105 118 172 233 284 215 123 182 178 171 203 195 216 225 214 185 246 189 261 256 231 197 207
98 90 95 104 81 55 83 76 33 15 8 16 63 77 222 233 197 151 128 131 127 130 138 147 154 144 141 132 119 130 118 165 262 148 161 203 183 192 203 213 213 196 216 243 272 258 241 234 245
126 87 66 101 121 133 20 104 35 101 93 125 185 161 238 182 146 141 123 105 93 84 84 99 109 116 113 122 123 152 152 183 200 141 147 141 164 188 171 217 222 223 239 243 305 250 225 191 237
94 44 58 65 110 81 79 110 83 15 102 84 115 243 177 131 123 101 84 95 84 78 65 56 67 67 85 100 117 118 138 168 165 210 291 163 157 137 169 188 254 238 267 246 287 270 246 217 207
29 61 104 97 91 155 81 59 77 52 94 116 294 196 117 132 112 95 91 73 59 46 31 24 36 60 75 98 105 111 110 128 155 183 266 249 203 165 152 161 209 250 253 262 277 238 232 228 198
90 88 150 135 146 126 28 27 44 174 259 213 215 191 108 94 90 88 73 80 74 61 51 59 77 66 82 98 119 134 126 135 152 157 166 265 283 217 182 145 184 251 245 245 254 243 297 145 182
26 18 149 211 142 44 48 108 118 216 244 286 292 170 110 103 93 85 71 53 54 41 44 48 51 70 85 96 98 106 106 123 144 143 149 157 223 201 70 103 198 221 211 241 225 224 331 314 163
63 48 16 63 53 108 47 52 105 97 176 238 232 186 198 144 123 79 50 18 22 27 38 53 50 59 66 74 93 117 108 123 99 94 126 91 136 184 130 100 184 176 215 200 210 210 196 264 243
162 123 167 141 193 132 93 85 36 192 212 176 143 142 130 81 44 -0 -8 12 10 39 48 67 63 60 71 66 79 52 79 123 129 106 85 71 90 145 150 105 170 183 211 208 196 212 202 215 218
173 278 179 192 163 153 104 52 104 184 174 101 151 130 101 53 4 -5 36 69 52 62 71 63 72 49 58 59 76 5 57 101 130 197 129 39 83 127 142 138 140 147 192 233 216 219 241 244 242
104 84 71 99 73 55 45 36 141 48 84 90 92 79 82 51 53 60 66 67 65 66 70 56 43 29 38 70 45 97 128 183 185 249 178 72 72 106 117 116 116 141 190 213 178 223 279 271 233

GFSSGP_con_3kmhel_114.txt.gz
Helicity
-42 -29 10 17 14 13 -33 -54 17 89 62 185 188 119 134 118 74 97 46 27 21 85 80 100 100 91 83 80 72 63 62 66 70 78 71 75 68 69 64 55 40 35 28 24 22 17 15 16 16
-36 -44 -4 3 10 -11 -46 6 75 178 159 119 61 38 39 51 86 98 129 50 43 66 72 88 96 90 77 76 71 66 72 82 82 84 84 73 69 68 68 55 36 17 14 33 17 13 16 17 22
-40 -37 -4 22 10 -21 -43 27 125 157 113 95 94 59 72 114 188 143 143 72 54 58 53 91 92 80 70 77 72 60 69 87 93 87 87 85 77 69 63 53 43 21 34 37 15 13 15 17 24
31 25 18 27 -11 -32 -6 21 126 84 37 14 84 65 70 126 108 120 95 53 19 40 66 117 96 73 73 79 73 63 72 92 94 92 83 82 79 72 70 61 52 38 43 32 21 22 28 22 23
14 17 14 12 -13 -7 -16 -10 133 101 153 86 90 49 63 115 135 136 91 78 64 59 171 111 129 88 77 82 79 68 65 78 78 85 85 84 80 73 64 52 51 48 46 44 29 29 37 39 37
23 15 35 18 0 -18 3 94 89 127 96 39 58 43 61 135 156 122 47 63 57 81 102 98 111 130 94 94 85 71 70 74 76 85 90 90 88 78 79 66 53 41 39 35 27 36 38 39 40
13 44 17 17 -6 28 64 99 89 136 82 33 56 142 114 115 153 119 47 12 32 98 72 45 62 118 108 92 85 79 72 76 76 82 86 92 89 83 80 75 62 40 53 33 26 36 37 39 40
27 75 28 11 6 12 26 62 115 166 88 118 155 198 69 114 117 94 75 50 -14 28 108 48 59 126 123 108 99 87 80 80 74 79 85 86 82 72 75 73 62 43 45 41 50 44 43 39 40
40 114 66 8 3 5 65 93 71 120 159 111 75 62 97 74 91 109 89 63 60 -31 29 85 20 98 136 129 122 113 92 82 89 94 94 97 79 74 76 71 63 49 49 47 51 46 53 51 47
98 119 66 17 26 47 69 145 193 152 88 37 41 46 68 43 80 134 193 154 75 36 -30 54 132 97 123 133 144 126 102 90 91 95 110 90 65 85 72 75 63 66 62 54 66 60 62 64 57
71 123 56 58 48 92 114 77 95 108 88 98 100 77 95 129 159 147 117 111 106 43 127 120 147 144 142 126 164 151 125 103 98 92 105 86 79 71 65 84 92 91 86 76 97 99 87 60 51
46 58 74 55 66 98 120 113 79 79 76 89 131 171 192 157 138 154 83 91 92 91 89 148 103 124 133 118 160 92 103 101 104 105 105 109 88 79 109 110 145 132 120 98 83 96 88 60 52
49 40 47 47 80 124 100 99 70 79 78 86 110 143 161 181 171 104 75 93 108 108 104 108 89 12 62 91 104 106 62 114 87 107 106 99 103 93 93 109 115 148 115 133 101 95 93 84 80
46 73 80 92 89 76 62 86 91 84 59 50 77 91 113 112 111 87 109 64 99 141 204 107 94 48 44 83 78 102 140 120 81 98 121 110 91 98 94 113 85 144 155 135 121 101 91 110 106
48 71 57 63 49 38 24 82 87 40 17 42 44 84 64 100 72 79 43 69 158 155 170 227 222 158 81 52 88 107 146 108 109 86 109 112 102 81 125 137 103 101 163 175 134 104 135 112 114
94 89 99 88 33 12 25 128 80 44 26 74 72 68 52 59 90 37 35 144 178 256 293 287 250 213 220 251 114 103 111 152 128 158 130 95 99 90 148 175 142 139 129 210 171 163 156 100 130
147 138 87 37 21 0 167 108 98 -10 57 185 137 52 28 55 32 48 207 229 296 299 263 244 205 186 199 172 183 167 118 104 129 141 151 145 85 135 138 176 147 136 190 246 200 189 168 139 168
131 126 109 126 14 33 70 90 39 38 35 99 87 33 28 38 36 250 283 346 349 223 143 142 150 166 182 173 165 118 96 98 92 108 135 152 142 110 187 180 223 190 191 205 244 230 195 200 190
80 93 146 172 157 52 47 64 83 49 39 49 66 76 59 28 135 265 263 223 246 182 182 158 122 108 111 162 217 267 238 199 143 126 118 140 167 153 151 213 281 280 242 166 192 261 263 242 189
99 124 157 73 39 56 93 126 130 63 71 62 37 52 68 26 219 218 238 261 194 154 128 143 168 150 124 124 149 165 177 173 204 240 237 139 153 197 213 208 270 295 299 216 155 288 370 304 205
56 70 82 70 50 44 74 82 60 66 34 22 30 40 155 251 311 279 271 194 120 99 79 115 126 136 121 106 98 107 139 169 197 151 160 208 200 186 232 232 280 343 324 312 229 236 340 357 274
108 66 47 42 63 143 53 141 60 54 14 62 68 229 357 296 293 352 273 187 102 112 81 76 80 84 91 95 91 103 82 81 120 164 245 291 154 142 186 221 268 338 354 278 247 243 288 324 304
55 46 98 197 234 149 121 174 137 13 2 167 240 368 380 389 357 293 200 111 81 89 84 65 64 59 62 66 64 60 72 72 74 90 142 165 243 289 199 257 232 299 278 266 269 248 269 301 334
81 202 75 55 114 140 93 110 90 49 27 171 409 301 363 430 264 156 97 79 94 87 54 29 33 44 45 46 52 46 37 46 54 58 60 88 97 219 240 291 293 289 242 208 264 248 265 253 315
202 197 188 224 252 227 32 61 61 201 162 540 458 231 380 264 157 121 111 133 102 60 50 43 48 40 39 32 34 47 52 55 58 72 72 52 58 112 196 184 235 345 321 256 233 269 269 242 269
131 120 201 183 139 55 50 77 105 196 274 418 321 290 198 140 121 146 132 121 82 60 35 10 22 23 40 46 46 47 50 52 76 92 99 93 80 74 166 289 190 196 220 177 198 204 295 271 251
68 57 10 69 -25 14 22 43 41 112 150 216 249 191 137 115 139 137 102 37 13 2 -11 0 -9 18 44 58 55 62 70 79 87 90 89 107 91 87 111 212 189 193 223 180 164 266 219 274 274
200 124 151 164 155 104 47 41 84 22 124 122 152 147 134 163 147 86 38 6 -27 -27 -10 25 13 25 41 65 70 63 70 85 95 101 91 87 94 114 118 111 173 179 223 169 157 225 221 275 256
102 80 191 165 73 157 187 125 12 77 98 52 78 71 70 75 81 69 36 39 46 26 24 11 12 36 56 62 73 71 50 65 73 65 66 56 72 104 82 62 118 167 180 181 203 213 242 192 211
157 130 136 151 114 144 191 163 42 40 44 53 32 54 103 98 121 41 29 68 53 40 35 10 24 50 61 78 81 78 48 59 82 123 92 54 133 124 134 67 112 184 193 192 160 208 220 187 212

GFSSGP_con_3kmhel_117.txt.gz
Helicity
-7 -5 55 50 62 47 11 8 41 88 121 94 72 97 59 91 129 71 13 10 9 63 94 101 114 113 96 80 71 76 66 60 68 80 85 83 50 45 52 57 42 37 30 21 15 11 7 3 -1
5 8 56 65 62 32 15 130 75 70 76 101 122 107 109 154 118 122 101 14 14 70 126 132 98 97 97 85 80 72 63 70 78 79 82 85 68 50 51 49 43 34 27 20 11 8 9 10 7
11 21 56 51 44 39 48 -3 81 80 102 94 89 96 116 176 143 145 137 94 32 86 108 129 101 97 98 91 80 68 60 70 80 80 75 82 74 64 52 42 36 27 22 32 18 12 13 20 15
45 54 46 65 10 -9 60 46 101 119 126 139 112 88 120 68 110 93 117 107 74 101 81 108 130 107 107 93 77 63 63 70 78 79 73 72 69 63 56 46 34 19 21 33 19 22 23 20 18
76 80 82 57 25 13 3 13 156 121 132 88 76 78 131 126 163 141 110 113 117 113 94 59 126 117 111 98 78 65 62 70 72 76 73 73 70 67 60 49 41 30 28 34 23 19 20 23 21
66 96 89 44 19 86 -72 10 35 82 101 81 78 83 105 240 218 168 110 45 91 95 107 78 89 113 113 104 86 67 59 70 67 66 63 73 71 70 61 55 41 39 36 37 36 29 33 30 25
51 80 50 17 -37 -30 -6 25 61 114 171 183 143 147 189 225 110 122 93 52 58 71 95 105 113 107 107 96 91 83 68 68 71 65 66 67 70 70 65 60 52 46 40 43 40 38 37 36 34
63 116 67 78 39 0 82 7 11 65 64 141 178 241 234 56 41 55 72 95 14 68 73 73 97 124 131 113 95 96 81 79 75 72 71 72 70 68 61 66 58 53 46 44 48 43 42 43 38
62 148 94 78 53 35 94 7 11 101 169 113 106 125 136 22 36 70 128 128 125 60 74 65 83 83 125 132 110 107 103 99 87 81 82 87 86 70 71 66 56 56 46 45 51 64 52 52 51
141 157 88 65 38 50 25 23 38 88 167 190 131 90 100 89 94 168 194 202 167 125 125 117 61 58 130 157 148 130 128 137 124 110 93 100 100 87 74 74 66 63 61 65 70 68 81 72 66
80 106 76 11 14 28 23 5 30 49 106 120 143 153 171 148 185 185 155 143 90 116 175 179 107 51 92 169 200 173 158 155 123 112 100 97 99 93 86 87 79 89 77 83 84 96 106 99 70
101 64 84 103 92 68 31 64 8 59 76 93 101 133 168 215 207 186 198 97 68 133 141 178 183 117 103 113 177 186 192 159 138 109 121 103 104 104 104 106 109 124 126 120 124 125 108 88 74
49 53 50 39 64 56 66 76 63 45 66 68 58 106 154 176 200 230 177 92 62 131 79 110 164 126 136 128 149 172 191 170 169 128 107 125 102 105 121 129 121 138 145 136 139 153 131 99 64
75 65 63 41 34 56 67 30 96 88 90 95 93 94 123 130 151 164 134 83 87 168 188 289 198 176 131 119 82 128 155 148 157 134 110 123 131 109 104 122 161 168 167 161 141 152 130 116 95
137 114 81 147 112 73 20 3 88 92 95 64 96 83 119 122 95 93 59 70 153 242 321 318 279 282 234 158 100 165 101 73 149 140 113 105 103 117 90 118 129 174 158 177 152 126 115 136 136
114 137 118 113 51 54 110 83 199 121 61 73 81 155 117 134 133 106 81 243 232 265 308 351 276 274 250 165 176 147 88 4 95 83 138 144 119 106 128 112 133 167 200 207 193 154 135 129 168
160 159 108 40 73 96 82 123 35 148 118 98 111 135 109 87 108 206 379 365 311 266 249 277 270 223 184 176 190 157 141 91 153 113 142 109 141 143 125 134 151 196 246 215 225 200 205 211 198
146 153 148 143 144 85 44 21 47 54 131 118 114 119 106 81 253 458 572 560 499 382 302 264 213 203 179 174 168 160 155 149 140 118 103 118 120 122 158 147 130 169 234 264 259 236 243 234 257
111 143 167 156 125 95 148 107 49 -10 59 91 76 140 109 245 351 541 621 615 533 419 389 297 222 197 113 110 132 158 177 171 145 133 180 134 82 145 156 180 200 172 182 188 329 294 242 257 268
124 143 149 108 64 69 99 110 90 32 3 75 86 91 142 503 537 462 449 504 382 303 281 252 230 173 109 61 79 72 94 90 113 123 154 220 152 135 145 193 207 213 254 244 271 390 334 297 331
81 104 98 78 84 138 130 153 175 95 43 106 151 124 180 630 765 534 501 474 433 331 227 205 179 118 65 61 40 50 60 61 50 75 85 155 187 207 254 109 161 191 209 214 193 259 371 307 358
109 75 60 115 199 187 91 151 45 45 82 23 59 277 557 668 684 617 544 447 364 226 133 139 96 72 70 52 33 31 -4 36 67 67 55 45 67 123 187 250 170 180 213 249 292 104 230 361 298
71 111 171 81 64 85 79 210 169 154 136 77 173 468 749 675 439 558 474 295 198 121 105 68 45 53 43 37 44 29 33 16 -4 9 61 72 44 37 77 170 239 184 231 266 298 330 294 308 319
66 92 99 129 195 219 169 160 108 128 59 190 447 537 620 563 479 416 293 216 129 101 91 57 53 25 23 22 31 38 41 36 30 34 8 2 37 30 21 52 143 243 167 236 303 320 334 254 222
132 154 171 120 163 208 120 115 208 186 290 210 458 565 379 369 391 233 135 157 147 49 28 21 1 -8 -23 -21 -5 2 15 28 26 28 35 49 17 8 44 41 53 170 245 187 237 296 273 240 253
109 169 219 142 154 79 44 144 161 183 569 477 442 565 445 368 334 129 51 26 27 18 -20 -33 -34 -37 -43 -44 -30 -15 11 6 21 21 20 33 42 51 55 61 78 103 212 249 185 192 217 257 267
213 187 141 158 93 80 85 125 204 292 116 291 118 296 298 314 195 182 -23 32 7 -18 -28 -48 -46 -38 -32 -20 -21 -6 8 26 23 31 25 40 46 71 71 76 97 96 155 254 215 194 199 225 222
201 185 245 242 142 103 79 41 71 6 53 22 -6 -17 53 63 79 55 18 -25 -31 -24 -21 -18 -39 -43 -29 -6 -1 10 39 53 56 50 42 47 74 91 103 103 95 122 149 231 199 214 225 283 222
145 192 237 212 191 121 110 63 37 -8 -19 -60 -28 32 63 69 59 39 22 22 -9 -37 -7 -10 -29 -34 -25 -2 17 38 62 74 82 77 66 76 95 92 73 73 108 117 129 206 200 172 170 190 205
173 133 101 156 164 174 133 68 44 -33 -47 -89 51 99 135 106 97 50 31 -25 -57 -13 7 8 -12 -9 -4 26 40 58 77 81 90 82 66 57 49 45 54 22 35 143 119 161 172 180 188 173 223

GFSSGP_con_3kmhel_123.txt.gz
Helicity
32 24 29 39 56 64 95 53 50 27 -19 -10 16 19 23 60 61 58 47 94 84 87 46 76 82 86 88 84 92 120 146 157 167 181 185 175 170 157 132 110 98 78 67 59 54 58 59 58 45
48 27 43 40 64 70 134 103 138 95 -6 29 44 46 61 46 24 19 87 52 54 87 79 83 92 103 103 91 87 97 119 136 142 166 179 172 173 161 129 105 87 79 71 60 56 57 60 66 51
40 32 54 62 58 63 130 95 156 132 -3 -0 29 83 75 56 48 34 44 61 47 41 62 96 122 139 116 103 87 93 104 124 121 145 166 167 160 163 135 107 85 75 71 73 72 67 70 72 55
64 62 72 79 51 39 53 115 169 119 33 8 47 100 78 33 47 34 54 76 75 50 49 78 131 153 134 112 86 84 89 97 105 124 149 159 154 154 139 114 92 81 79 77 71 70 72 70 56
60 74 95 64 44 48 51 80 109 159 58 40 71 66 69 95 99 88 77 71 65 44 47 90 83 117 138 98 82 78 84 88 94 104 124 141 143 147 138 126 107 90 80 76 71 70 64 64 56
88 73 94 58 56 61 72 98 40 118 69 73 96 77 66 73 101 85 76 89 73 75 53 96 90 99 109 116 88 79 89 91 88 92 107 129 128 131 135 134 118 97 88 81 78 77 66 60 55
89 97 43 32 30 42 66 131 156 146 135 101 84 103 66 111 53 31 35 71 81 96 112 91 97 92 98 116 99 85 84 91 89 83 88 101 122 113 121 119 129 128 107 93 82 78 71 67 57
90 88 47 18 45 41 55 87 114 186 202 142 54 143 97 26 65 79 101 117 117 110 117 97 91 108 94 91 113 101 91 94 89 78 82 90 123 117 113 115 119 127 129 104 93 83 78 68 63
92 91 65 53 33 22 49 98 79 117 150 160 130 115 115 79 83 102 109 107 108 111 93 111 99 105 99 97 99 112 104 101 93 87 87 97 116 133 119 119 122 118 116 122 106 94 78 71 62
108 96 40 41 28 -7 24 42 61 83 135 117 112 96 63 76 123 117 125 111 94 78 69 106 132 124 123 125 129 128 137 145 147 148 134 123 116 124 116 106 112 118 113 112 111 96 91 87 80
97 99 61 60 14 -7 -70 -32 3 31 55 85 80 73 52 56 80 112 139 150 138 107 105 110 125 134 139 155 174 169 149 156 166 153 153 132 114 111 118 113 108 129 134 151 134 128 117 98 106
95 79 59 23 29 42 -8 -40 2 64 83 80 57 67 72 68 105 101 125 132 202 158 122 109 164 189 170 178 163 163 158 148 156 155 148 158 144 116 120 117 123 122 151 163 172 157 130 107 106
71 77 94 75 25 35 40 55 82 74 68 29 41 61 97 107 83 91 94 188 216 206 177 154 176 207 207 180 167 136 111 127 139 142 138 149 145 126 127 127 147 146 140 164 176 167 134 115 114
121 93 58 29 25 64 69 76 81 50 48 63 101 134 180 171 99 98 116 243 284 252 242 254 301 245 254 250 163 142 137 116 94 132 137 130 138 135 143 141 138 143 166 161 167 166 149 134 132
75 72 82 73 84 105 114 115 80 137 114 124 133 135 110 91 72 97 158 295 327 350 277 303 396 389 327 287 218 165 143 186 195 144 161 127 111 114 114 115 141 142 153 167 173 158 152 143 139
122 128 112 51 152 121 151 191 131 98 135 97 94 120 150 179 75 102 279 434 457 387 437 452 435 453 359 289 249 212 199 177 159 160 147 171 149 105 69 90 109 102 123 146 155 163 151 138 131
174 124 93 153 101 132 149 144 128 85 77 96 77 66 72 104 134 263 425 526 583 575 582 569 496 452 387 321 260 220 208 200 176 157 168 204 204 129 148 136 187 118 81 103 146 154 154 147 121
127 125 112 139 131 140 135 111 124 123 138 91 43 32 13 102 266 482 674 673 666 672 701 571 476 451 377 328 252 203 166 154 175 185 192 210 192 210 164 120 145 264 215 -0 119 106 140 171 160
191 176 155 153 127 149 121 102 92 73 65 40 38 -3 29 144 339 561 686 707 687 703 650 571 472 438 347 313 261 199 171 153 134 162 222 198 175 155 153 170 210 152 76 70 105 110 114 140 181
171 123 130 131 70 130 107 84 74 63 38 22 19 -8 79 207 354 482 628 719 718 631 639 587 467 450 390 303 233 145 109 91 115 192 178 155 148 158 160 159 159 144 173 -27 84 60 67 114 133
123 147 113 134 108 101 115 104 75 36 -0 60 140 47 160 373 546 617 714 613 610 536 616 519 415 412 359 293 218 149 108 119 112 100 77 118 118 106 134 144 166 141 144 121 176 187 74 139 145
126 82 103 114 118 133 141 124 132 77 128 143 282 454 568 572 621 606 596 614 564 527 391 319 333 378 314 261 185 134 73 78 102 91 92 81 69 61 65 116 129 160 140 119 142 153 146 217 268
136 88 99 93 125 114 145 137 142 100 124 150 266 387 458 522 552 561 535 485 468 472 441 383 297 234 252 221 173 117 103 44 66 64 51 53 49 48 49 47 76 107 146 168 160 177 153 197 195
95 123 152 147 118 196 112 135 178 124 77 178 336 413 521 513 549 539 479 396 379 377 273 186 172 122 142 106 78 75 83 75 58 38 17 12 10 50 62 54 61 73 79 102 157 216 202 201 208
118 120 175 200 202 188 117 129 189 178 247 229 297 344 412 388 326 457 555 472 439 379 237 176 84 39 46 56 32 46 60 65 53 52 35 31 16 34 76 114 90 76 74 83 93 127 174 206 211
86 141 161 196 194 132 160 190 180 203 192 168 182 228 182 96 49 61 48 98 296 433 25 10 -33 -29 -1 12 42 27 21 15 31 43 47 39 25 34 54 65 103 110 98 85 88 101 128 169 230
73 126 107 167 158 162 158 242 217 227 161 95 86 61 80 86 -39 -2 33 31 21 -5 18 -6 -27 -25 -35 -29 -14 11 41 63 44 53 53 57 42 20 38 63 62 79 85 87 84 95 123 158 212
121 107 150 193 144 130 132 178 217 122 119 86 66 38 33 25 37 23 17 35 28 1 -5 3 -8 -35 -73 -70 -42 9 28 44 45 47 47 57 48 36 38 59 68 62 63 86 98 121 161 180 208
205 214 211 168 224 209 198 160 178 102 112 103 53 27 69 121 90 84 37 24 14 6 -14 26 11 -13 -9 9 7 10 30 58 58 51 54 57 49 47 47 62 62 59 61 64 85 121 163 201 211
137 167 244 237 189 268 298 303 180 167 213 76 46 131 195 171 141 80 48 52 39 28 27 24 -1 -8 -8 11 33 51 63 69 64 73 85 81 73 61 62 69 59 64 63 82 124 112 117 139 173